• Em Portugal
  • Lista de países
  • Para 7 dias
  • Temperatura da água
  • Mapas de satélite
  • Mapa do tempo
  • Widgets de tempo
  • user-avatar
    Iniciar Sessão

    Previsão horária em Baranovichi

    Hoje, 22 Outubro, Segunda-feira

    Tempo Temperatura Precipitação Vento Pressão Humidade
    00:00 +6°C° 0 mm 1 m/s 754 mmHg 83%
    01:00 +5°C° 0 mm 1 m/s 754 mmHg 84%
    02:00 +4°C° 0 mm 0 m/s 753 mmHg 86%
    03:00 +5°C° 0 mm 1 m/s 753 mmHg 87%
    04:00 +4°C° 0 mm 1 m/s 753 mmHg 88%
    05:00 +4°C° 0 mm 1 m/s 753 mmHg 89%
    06:00 +4°C° 0 mm 1 m/s 753 mmHg 88%
    07:00 +5°C° 0 mm 1 m/s 753 mmHg 88%
    08:00 +4°C° 0 mm 2 m/s 753 mmHg 87%
    09:00 +5°C° 0 mm 2 m/s 752 mmHg 80%
    10:00 +7°C° 0 mm 3 m/s 752 mmHg 74%
    11:00 +9°C° 0 mm 3 m/s 752 mmHg 67%
    12:00 +9°C° 0 mm 3 m/s 751 mmHg 65%
    13:00 +10°C° 0 mm 3 m/s 750 mmHg 63%
    14:00 +11°C° 0 mm 4 m/s 750 mmHg 61%
    15:00 +10°C° 0 mm 3 m/s 749 mmHg 66%
    16:00 +9°C° 0 mm 3 m/s 749 mmHg 70%
    17:00 +8°C° 0 mm 3 m/s 748 mmHg 75%
    18:00 +7°C° 0 mm 3 m/s 748 mmHg 75%
    19:00 +7°C° 0 mm 3 m/s 748 mmHg 76%
    20:00 +6°C° 0 mm 4 m/s 747 mmHg 77%
    21:00 +6°C° 0.4 mm 4 m/s 747 mmHg 80%
    22:00 +6°C° 0.4 mm 4 m/s 747 mmHg 82%
    23:00 +7°C° 0.4 mm 4 m/s 747 mmHg 85%

    Amanhã, 23 Outubro, Terça-feira

    Tempo Temperatura Precipitação Vento Pressão Humidade
    00:00 +6°C° 0.2 mm 4 m/s 746 mmHg 87%
    01:00 +5°C° 0.2 mm 3 m/s 746 mmHg 89%
    02:00 +5°C° 0.2 mm 3 m/s 746 mmHg 92%
    03:00 +4°C° 0 mm 3 m/s 746 mmHg 92%
    04:00 +3°C° 0 mm 3 m/s 746 mmHg 93%
    05:00 +3°C° 0 mm 3 m/s 745 mmHg 94%
    06:00 +3°C° 0 mm 3 m/s 745 mmHg 92%
    07:00 +3°C° 0 mm 3 m/s 745 mmHg 91%
    08:00 +3°C° 0 mm 3 m/s 744 mmHg 90%
    09:00 +4°C° 0 mm 3 m/s 744 mmHg 84%
    10:00 +5°C° 0 mm 4 m/s 743 mmHg 78%
    11:00 +6°C° 0 mm 4 m/s 743 mmHg 73%
    12:00 +6°C° 0.2 mm 5 m/s 741 mmHg 73%
    13:00 +6°C° 0.2 mm 5 m/s 740 mmHg 73%
    14:00 +5°C° 0.2 mm 6 m/s 739 mmHg 74%
    15:00 +5°C° 0.1 mm 6 m/s 738 mmHg 75%
    16:00 +4°C° 0.1 mm 6 m/s 737 mmHg 77%
    17:00 +4°C° 0.1 mm 6 m/s 735 mmHg 79%
    18:00 +4°C° 0.5 mm 7 m/s 734 mmHg 80%
    19:00 +4°C° 0.5 mm 7 m/s 733 mmHg 82%
    20:00 +4°C° 0.5 mm 7 m/s 731 mmHg 83%
    21:00 +4°C° 1.1 mm 7 m/s 730 mmHg 85%
    22:00 +4°C° 1.1 mm 6 m/s 729 mmHg 86%
    23:00 +4°C° 1.1 mm 6 m/s 727 mmHg 88%

    Depois de amanhã, 24 Outubro, Quarta-feira

    Tempo Temperatura Precipitação Vento Pressão Humidade
    00:00 +5°C° 0.3 mm 6 m/s 726 mmHg 88%
    01:00 +5°C° 0.3 mm 6 m/s 726 mmHg 88%
    02:00 +5°C° 0.3 mm 6 m/s 725 mmHg 88%
    03:00 +5°C° 0.4 mm 6 m/s 724 mmHg 88%
    04:00 +4°C° 0.4 mm 6 m/s 723 mmHg 88%
    05:00 +4°C° 0.4 mm 6 m/s 723 mmHg 87%
    06:00 +5°C° 0.7 mm 5 m/s 722 mmHg 87%
    07:00 +5°C° 0.7 mm 5 m/s 722 mmHg 87%
    08:00 +5°C° 0.7 mm 5 m/s 722 mmHg 87%
    09:00 +5°C° 0.2 mm 5 m/s 722 mmHg 84%
    10:00 +4°C° 0.2 mm 6 m/s 723 mmHg 81%
    11:00 +5°C° 0.2 mm 7 m/s 723 mmHg 77%
    12:00 +5°C° 0 mm 6 m/s 724 mmHg 76%
    13:00 +5°C° 0 mm 6 m/s 724 mmHg 75%
    14:00 +5°C° 0 mm 6 m/s 725 mmHg 74%
    15:00 +6°C° 0.3 mm 5 m/s 725 mmHg 77%
    16:00 +6°C° 0.3 mm 5 m/s 726 mmHg 79%
    17:00 +5°C° 0.3 mm 5 m/s 726 mmHg 82%
    18:00 +5°C° 0.2 mm 5 m/s 727 mmHg 83%
    19:00 +4°C° 0.2 mm 6 m/s 727 mmHg 83%
    20:00 +4°C° 0.2 mm 6 m/s 728 mmHg 84%
    21:00 +4°C° 0.2 mm 7 m/s 729 mmHg 83%
    22:00 +4°C° 0.2 mm 7 m/s 730 mmHg 82%
    23:00 +4°C° 0.2 mm 8 m/s 730 mmHg 81%

    25 Outubro, Quinta-feira

    Tempo Temperatura Precipitação Vento Pressão Humidade
    00:00 +4°C° 0.1 mm 8 m/s 731 mmHg 80%
    01:00 +2°C° 0.1 mm 8 m/s 732 mmHg 80%
    02:00 +2°C° 0.1 mm 8 m/s 732 mmHg 80%
    03:00 +2°C° 0 mm 8 m/s 733 mmHg 79%
    04:00 +3°C° 0 mm 7 m/s 733 mmHg 79%
    05:00 +3°C° 0 mm 7 m/s 733 mmHg 79%
    06:00 +2°C° 0 mm 6 m/s 733 mmHg 81%
    07:00 +2°C° 0 mm 6 m/s 734 mmHg 82%
    08:00 +1°C° 0 mm 5 m/s 734 mmHg 84%
    09:00 +2°C° 0 mm 5 m/s 734 mmHg 81%
    10:00 +3°C° 0 mm 5 m/s 733 mmHg 77%
    11:00 +5°C° 0 mm 4 m/s 733 mmHg 73%
    12:00 +5°C° 0.3 mm 4 m/s 732 mmHg 73%
    13:00 +3°C° 0.3 mm 5 m/s 732 mmHg 74%
    14:00 +3°C° 0.3 mm 5 m/s 731 mmHg 74%
    15:00 +4°C° 0.6 mm 4 m/s 731 mmHg 78%
    16:00 +4°C° 0.6 mm 2 m/s 731 mmHg 82%
    17:00 +5°C° 0.6 mm 1 m/s 730 mmHg 85%
    18:00 +4°C° 0.1 mm 2 m/s 731 mmHg 86%
    19:00 +3°C° 0.1 mm 2 m/s 732 mmHg 87%
    20:00 +2°C° 0.1 mm 3 m/s 733 mmHg 88%
    21:00 +2°C° 0 mm 3 m/s 733 mmHg 90%
    22:00 +1°C° 0 mm 3 m/s 734 mmHg 92%
    23:00 +2°C° 0 mm 2 m/s 734 mmHg 94%

    26 Outubro, Sexta-feira

    Tempo Temperatura Precipitação Vento Pressão Humidade
    00:00 +2°C° 0 mm 2 m/s 735 mmHg 94%
    01:00 +2°C° 0 mm 2 m/s 735 mmHg 94%
    02:00 +1°C° 0 mm 2 m/s 735 mmHg 95%
    03:00 +2°C° 0.1 mm 2 m/s 736 mmHg 94%
    04:00 +2°C° 0.1 mm 2 m/s 736 mmHg 94%
    05:00 +3°C° 0.1 mm 2 m/s 736 mmHg 93%
    06:00 +3°C° 0.1 mm 2 m/s 737 mmHg 93%
    07:00 +2°C° 0.1 mm 3 m/s 737 mmHg 93%
    08:00 +2°C° 0.1 mm 3 m/s 738 mmHg 93%
    09:00 +3°C° 0 mm 3 m/s 738 mmHg 87%
    10:00 +4°C° 0 mm 3 m/s 739 mmHg 81%
    11:00 +5°C° 0 mm 3 m/s 739 mmHg 76%
    12:00 +5°C° 0 mm 3 m/s 739 mmHg 73%
    13:00 +7°C° 0 mm 3 m/s 740 mmHg 70%
    14:00 +7°C° 0 mm 3 m/s 740 mmHg 67%
    15:00 +5°C° 0 mm 3 m/s 740 mmHg 73%
    16:00 +6°C° 0 mm 2 m/s 740 mmHg 78%
    17:00 +5°C° 0 mm 2 m/s 740 mmHg 84%
    18:00 +4°C° 0 mm 2 m/s 740 mmHg 87%
    19:00 +4°C° 0 mm 2 m/s 740 mmHg 89%
    20:00 +3°C° 0 mm 2 m/s 741 mmHg 92%
    21:00 +2°C° 0 mm 3 m/s 741 mmHg 92%
    22:00 +3°C° 0 mm 3 m/s 740 mmHg 93%
    23:00 +3°C° 0 mm 3 m/s 740 mmHg 93%

    27 Outubro, Sábado

    Tempo Temperatura Precipitação Vento Pressão Humidade
    00:00 +3°C° 0 mm 3 m/s 740 mmHg 93%
    01:00 +3°C° 0 mm 3 m/s 740 mmHg 93%
    02:00 +3°C° 0 mm 4 m/s 740 mmHg 92%
    03:00 +3°C° 0 mm 4 m/s 739 mmHg 92%
    04:00 +4°C° 0 mm 4 m/s 739 mmHg 92%
    05:00 +4°C° 0 mm 4 m/s 738 mmHg 92%
    06:00 +4°C° 0 mm 4 m/s 738 mmHg 92%
    07:00 +5°C° 0 mm 5 m/s 738 mmHg 91%
    08:00 +5°C° 0 mm 5 m/s 738 mmHg 91%
    09:00 +6°C° 0 mm 5 m/s 738 mmHg 87%
    10:00 +7°C° 0 mm 5 m/s 737 mmHg 83%
    11:00 +8°C° 0 mm 5 m/s 737 mmHg 79%
    12:00 +9°C° 0 mm 5 m/s 737 mmHg 77%
    13:00 +11°C° 0 mm 4 m/s 737 mmHg 76%
    14:00 +11°C° 0 mm 4 m/s 737 mmHg 74%
    15:00 +10°C° 0 mm 3 m/s 737 mmHg 79%
    16:00 +10°C° 0 mm 3 m/s 736 mmHg 83%
    17:00 +9°C° 0 mm 2 m/s 736 mmHg 88%
    18:00 +9°C° 0 mm 2 m/s 736 mmHg 89%
    19:00 +8°C° 0 mm 3 m/s 736 mmHg 90%
    20:00 +8°C° 0 mm 3 m/s 736 mmHg 91%
    21:00 +9°C° 0 mm 3 m/s 736 mmHg 91%
    22:00 +8°C° 0 mm 4 m/s 736 mmHg 90%
    23:00 +9°C° 0 mm 5 m/s 735 mmHg 90%

    28 Outubro, Domingo

    Tempo Temperatura Precipitação Vento Pressão Humidade
    00:00 +9°C° 0 mm 5 m/s 735 mmHg 87%
    01:00 +10°C° 0 mm 5 m/s 734 mmHg 85%
    02:00 +10°C° 0 mm 5 m/s 734 mmHg 82%
    03:00 +11°C° 0.1 mm 6 m/s 733 mmHg 82%
    04:00 +11°C° 0.1 mm 6 m/s 733 mmHg 82%
    05:00 +13°C° 0.1 mm 6 m/s 733 mmHg 82%
    06:00 +13°C° 0 mm 6 m/s 732 mmHg 80%
    07:00 +13°C° 0 mm 6 m/s 732 mmHg 77%
    08:00 +12°C° 0 mm 7 m/s 732 mmHg 74%
    09:00 +13°C° 0 mm 8 m/s 732 mmHg 70%
    10:00 +16°C° 0 mm 8 m/s 733 mmHg 66%
    11:00 +17°C° 0 mm 9 m/s 733 mmHg 61%
    12:00 +17°C° 0 mm 9 m/s 734 mmHg 63%
    13:00 +16°C° 0 mm 8 m/s 734 mmHg 64%
    14:00 +16°C° 0 mm 8 m/s 735 mmHg 66%
    15:00 +14°C° 0 mm 7 m/s 736 mmHg 68%
    16:00 +12°C° 0 mm 7 m/s 737 mmHg 71%
    17:00 +10°C° 0 mm 6 m/s 738 mmHg 73%
    18:00 +9°C° 0 mm 5 m/s 739 mmHg 74%
    19:00 +9°C° 0 mm 5 m/s 740 mmHg 74%
    20:00 +8°C° 0 mm 4 m/s 741 mmHg 75%
    21:00 +7°C° 0 mm 4 m/s 741 mmHg 78%
    22:00 +8°C° 0 mm 3 m/s 742 mmHg 80%
    23:00 +7°C° 0 mm 3 m/s 743 mmHg 83%
    Mostrar mais